Voltar ao catálogo

FENGYUN 1C DEB

AtivoSSO
NORAD 30913·DEBRIS·🇨🇳 China

Lançado May 10, 1999 de Taiyuan Satellite Launch Center

Loading…

Próximas Passagens (próximas 24 horas)

TLE

AtualizadoSource: Space-Track

Época: Sep 14, 2026, 12:46 UTC

1 30913U 99025AZB 26257.53197251  .00000337  00000-0  23111-3 0  9990
2 30913  98.7253 279.3333 0049303 126.5119 234.0605 14.05424228997913

Acompanhe FENGYUN 1C DEB em tempo real com AllMySat

Download on the App Store